| time (UTC) | temp C | wind direction | speed KPH | gust KPH | rain 1hr cm | rain 24hr cm | rain mn cm | humidity % | barometer mb |
| 20260906233001 | 27 | 161 | 14.5 | 46.7 | 0.00 | 0.00 | 0.00 | 20 | 1000.4 |
| 20260906231603 | 27 | 360 | 22.5 | 41.8 | 0.00 | 0.00 | 0.00 | 19 | 1000.2 |
| 20260906230108 | 27 | 360 | 17.7 | 43.5 | 0.00 | 0.00 | 0.00 | 18 | 1000.4 |
| 20260906224602 | 27 | 360 | 24.1 | 41.8 | 0.00 | 0.00 | 0.00 | 18 | 1000.4 |
| 20260906223058 | 27 | 360 | 22.5 | 38.6 | 0.00 | 0.00 | 0.00 | 18 | 1000.6 |
| 20260906221555 | 28 | 360 | 17.7 | 46.7 | 0.00 | 0.00 | 0.00 | 18 | 1000.6 |
| 20260906220053 | 28 | 360 | 20.9 | 43.5 | 0.00 | 0.00 | 0.00 | 17 | 1000.8 |
| 20260906214552 | 28 | 360 | 25.7 | 46.7 | 0.00 | 0.00 | 0.00 | 17 | 1000.9 |
| 20260906213056 | 28 | 360 | 17.7 | 41.8 | 0.00 | 0.00 | 0.00 | 17 | 1001.1 |
| 20260906211549 | 28 | 360 | 22.5 | 40.2 | 0.00 | 0.00 | 0.00 | 17 | 1000.9 |
| 20260906210048 | 28 | 360 | 17.7 | 43.5 | 0.00 | 0.00 | 0.00 | 18 | 1001.3 |
| 20260906204544 | 28 | 360 | 14.5 | 41.8 | 0.00 | 0.00 | 0.00 | 19 | 1001.7 |
| 20260906203011 | 27 | 360 | 19.3 | 46.7 | 0.00 | 0.00 | 0.00 | 19 | 1002.1 |
| 20260906201519 | 27 | 360 | 17.7 | 54.7 | 0.00 | 0.00 | 0.00 | 20 | 1002.1 |
| 20260906200007 | 27 | 360 | 14.5 | 46.7 | 0.00 | 0.00 | 0.00 | 19 | 1002.2 |
| 20260906194505 | 27 | 360 | 29.0 | 40.2 | 0.00 | 0.00 | 0.00 | 20 | 1002.3 |
| 20260906193005 | 27 | 360 | 27.4 | 48.3 | 0.00 | 0.00 | 0.00 | 18 | 1002.2 |
| 20260906191502 | 27 | 360 | 24.1 | 41.8 | 0.00 | 0.00 | 0.00 | 20 | 1002.4 |
| 20260906190059 | 27 | 360 | 22.5 | 51.5 | 0.00 | 0.00 | 0.00 | 19 | 1002.8 |
| 20260906184554 | 26 | 360 | 27.4 | 38.6 | 0.00 | 0.00 | 0.00 | 20 | 1003.3 |
| 20260906183059 | 26 | 136 | 22.5 | 41.8 | 0.00 | 0.00 | 0.00 | 21 | 1003.5 |
| 20260906181551 | 26 | 155 | 22.5 | 35.4 | 0.00 | 0.00 | 0.00 | 23 | 1003.8 |
| 20260906180042 | 24 | 360 | 1.6 | 3.2 | 0.00 | 0.00 | 0.00 | 30 | 1004.0 |
| 20260906174536 | 22 | 46 | 0.0 | 3.2 | 0.00 | 0.00 | 0.00 | 39 | 1004.3 |
| 20260906173032 | 21 | 360 | 0.0 | 3.2 | 0.00 | 0.00 | 0.00 | 45 | 1004.8 |
| 20260906171528 | 20 | 360 | 0.0 | 3.2 | 0.00 | 0.00 | 0.00 | 46 | 1004.9 |
| 20260906170023 | 19 | 24 | 0.0 | 1.6 | 0.00 | 0.00 | 0.00 | 48 | 1005.2 |
| 20260906164523 | 18 | 360 | 0.0 | 1.6 | 0.00 | 0.00 | 0.00 | 49 | 1005.4 |
| 20260906163024 | 18 | 34 | 0.0 | 1.6 | 0.00 | 0.00 | 0.00 | 51 | 1005.8 |
| 20260906161513 | 17 | 70 | 0.0 | 1.6 | 0.00 | 0.00 | 0.00 | 53 | 1005.9 |
| 20260906160006 | 16 | 38 | 0.0 | 1.6 | 0.00 | 0.00 | 0.00 | 53 | 1006.0 |
| 20260906154504 | 16 | 41 | 0.0 | 1.6 | 0.00 | 0.00 | 0.00 | 52 | 1006.4 |
| 20260906153003 | 17 | 360 | 0.0 | 1.6 | 0.00 | 0.00 | 0.00 | 48 | 1006.5 |
| 20260906151601 | 16 | 89 | 0.0 | 0.0 | 0.00 | 0.00 | 0.00 | 47 | 1006.5 |
| 20260906150056 | 15 | 92 | 0.0 | 1.6 | 0.00 | 0.00 | 0.00 | 50 | 1006.5 |
| 20260906144558 | 13 | 90 | 0.0 | 1.6 | 0.00 | 0.00 | 0.00 | 53 | 1006.5 |
| 20260906143045 | 12 | 360 | 1.6 | 3.2 | 0.00 | 0.00 | 0.00 | 54 | 1006.5 |
| 20260906141542 | 12 | 360 | 0.0 | 3.2 | 0.00 | 0.00 | 0.00 | 57 | 1006.4 |
| 20260906140047 | 11 | 360 | 1.6 | 3.2 | 0.00 | 0.00 | 0.00 | 59 | 1006.2 |
| 20260906134540 | 11 | 360 | 0.0 | 1.6 | 0.00 | 0.00 | 0.00 | 59 | 1006.2 |
| 20260906133049 | 11 | 360 | 0.0 | 3.2 | 0.00 | 0.00 | 0.00 | 60 | 1006.2 |
| 20260906131538 | 11 | 360 | 0.0 | 3.2 | 0.00 | 0.00 | 0.00 | 60 | 1006.0 |
| 20260906130036 | 11 | 360 | 0.0 | 1.6 | 0.00 | 0.00 | 0.00 | 58 | 1006.0 |
| 20260906124531 | 12 | 360 | 0.0 | 1.6 | 0.00 | 0.00 | 0.00 | 57 | 1005.7 |
| 20260906123037 | 12 | 360 | 0.0 | 1.6 | 0.00 | 0.00 | 0.00 | 56 | 1005.6 |
| 20260906121537 | 12 | 360 | 0.0 | 1.6 | 0.00 | 0.00 | 0.00 | 58 | 1005.4 |
| 20260906120126 | 12 | 93 | 0.0 | 0.0 | 0.00 | 0.00 | 0.00 | 59 | 1005.6 |
| 20260906114604 | 12 | 95 | 0.0 | 1.6 | 0.00 | 0.00 | 0.00 | 61 | 1005.5 |
| 20260906113053 | 13 | 92 | 0.0 | 0.0 | 0.00 | 0.00 | 0.00 | 59 | 1005.4 |
| 20260906111614 | 13 | 94 | 0.0 | 1.6 | 0.00 | 0.00 | 0.00 | 57 | 1005.1 |
| 20260906110052 | 13 | 360 | 0.0 | 1.6 | 0.00 | 0.00 | 0.00 | 59 | 1005.0 |
| 20260906104550 | 15 | 84 | 0.0 | 3.2 | 0.00 | 0.00 | 0.00 | 57 | 1004.9 |
| 20260906103050 | 16 | 360 | 1.6 | 3.2 | 0.00 | 0.00 | 0.00 | 53 | 1004.8 |
| 20260906101547 | 17 | 360 | 0.0 | 8.0 | 0.00 | 0.00 | 0.00 | 49 | 1004.7 |
| 20260906100046 | 16 | 20 | 0.0 | 14.5 | 0.00 | 0.00 | 0.00 | 53 | 1004.5 |
| 20260906094546 | 16 | 360 | 17.7 | 30.6 | 0.00 | 0.00 | 0.00 | 53 | 1004.3 |
| 20260906093051 | 16 | 360 | 12.9 | 27.4 | 0.00 | 0.00 | 0.00 | 53 | 1004.3 |
| 20260906091543 | 17 | 360 | 19.3 | 33.8 | 0.00 | 0.00 | 0.00 | 51 | 1004.4 |
| 20260906090042 | 17 | 360 | 14.5 | 32.2 | 0.00 | 0.00 | 0.00 | 50 | 1004.4 |
| 20260906084545 | 17 | 360 | 20.9 | 33.8 | 0.00 | 0.00 | 0.00 | 47 | 1004.1 |
| 20260906083042 | 18 | 360 | 12.9 | 24.1 | 0.00 | 0.00 | 0.00 | 46 | 1004.0 |
| 20260906081549 | 18 | 360 | 9.7 | 20.9 | 0.00 | 0.00 | 0.00 | 46 | 1003.9 |
| 20260906080039 | 18 | 360 | 8.0 | 19.3 | 0.00 | 0.00 | 0.00 | 46 | 1003.7 |
| 20260906074538 | 17 | 201 | 1.6 | 19.3 | 0.00 | 0.00 | 0.00 | 40 | 1003.7 |
| 20260906073049 | 18 | 360 | 14.5 | 17.7 | 0.00 | 0.00 | 0.00 | 47 | 1003.5 |
| 20260906071535 | 18 | 360 | 11.3 | 17.7 | 0.00 | 0.00 | 0.00 | 47 | 1003.5 |
| 20260906070039 | 18 | 360 | 9.7 | 17.7 | 0.00 | 0.00 | 0.00 | 45 | 1003.5 |
| 20260906064534 | 18 | 360 | 6.4 | 20.9 | 0.00 | 0.00 | 0.00 | 43 | 1003.2 |
| 20260906063033 | 18 | 360 | 16.1 | 24.1 | 0.00 | 0.00 | 0.00 | 45 | 1003.3 |
| 20260906061530 | 19 | 360 | 9.7 | 19.3 | 0.00 | 0.00 | 0.00 | 39 | 1003.6 |
| 20260906060030 | 19 | 360 | 14.5 | 27.4 | 0.00 | 0.00 | 0.00 | 33 | 1003.5 |
| 20260906054528 | 18 | 161 | 9.7 | 19.3 | 0.00 | 0.00 | 0.00 | 34 | 1003.2 |
| 20260906053035 | 18 | 127 | 12.9 | 19.3 | 0.00 | 0.00 | 0.00 | 34 | 1003.3 |
| 20260906051524 | 19 | 360 | 12.9 | 17.7 | 0.00 | 0.00 | 0.00 | 34 | 1003.3 |
| 20260906050022 | 19 | 360 | 11.3 | 17.7 | 0.00 | 0.00 | 0.00 | 34 | 1003.4 |
| 20260906044521 | 19 | 360 | 9.7 | 12.9 | 0.00 | 0.00 | 0.00 | 35 | 1003.6 |
| 20260906043033 | 20 | 110 | 8.0 | 11.3 | 0.00 | 0.00 | 0.00 | 34 | 1003.9 |
| 20260906041549 | 20 | 108 | 6.4 | 11.3 | 0.00 | 0.00 | 0.00 | 33 | 1003.9 |
| 20260906040107 | 20 | 115 | 8.0 | 11.3 | 0.00 | 0.00 | 0.00 | 32 | 1004.0 |
| 20260906034546 | 21 | 124 | 4.8 | 9.7 | 0.00 | 0.00 | 0.00 | 29 | 1004.2 |
| 20260906033050 | 22 | 360 | 3.2 | 4.8 | 0.00 | 0.00 | 0.00 | 27 | 1004.2 |
| 20260906031545 | 23 | 360 | 3.2 | 6.4 | 0.00 | 0.00 | 0.00 | 26 | 1004.2 |
| 20260906030044 | 24 | 117 | 8.0 | 14.5 | 0.00 | 0.00 | 0.00 | 24 | 1004.3 |
| 20260906024514 | 24 | 360 | 4.8 | 12.9 | 0.00 | 0.00 | 0.00 | 24 | 1004.2 |
| 20260906023013 | 25 | 178 | 3.2 | 12.9 | 0.00 | 0.00 | 0.00 | 22 | 1004.0 |
| 20260906021510 | 25 | 360 | 4.8 | 17.7 | 0.00 | 0.00 | 0.00 | 22 | 1004.0 |
| 20260906020010 | 26 | 173 | 4.8 | 11.3 | 0.00 | 0.00 | 0.00 | 21 | 1004.0 |
| 20260906014510 | 27 | 360 | 6.4 | 24.1 | 0.00 | 0.00 | 0.00 | 20 | 1003.9 |
| 20260906013009 | 27 | 360 | 12.9 | 29.0 | 0.00 | 0.00 | 0.00 | 19 | 1004.0 |
| 20260906011506 | 27 | 360 | 14.5 | 27.4 | 0.00 | 0.00 | 0.00 | 19 | 1004.1 |
| 20260906010007 | 28 | 360 | 11.3 | 30.6 | 0.00 | 0.00 | 0.00 | 19 | 1004.1 |
| 20260906004505 | 28 | 360 | 8.0 | 32.2 | 0.00 | 0.00 | 0.00 | 18 | 1004.2 |
| 20260906003004 | 28 | 156 | 9.7 | 22.5 | 0.00 | 0.00 | 0.00 | 18 | 1004.1 |
| 20260906001502 | 28 | 360 | 24.1 | 46.7 | 0.00 | 0.00 | 0.00 | 18 | 1003.8 |
| 20260906000108 | 28 | 360 | 11.3 | 27.4 | 0.00 | 0.00 | 0.00 | 18 | 1004.0 |
| 20260905234602 | 27 | 360 | 8.0 | 19.3 | 0.00 | 0.00 | 0.00 | 26 | 1004.3 |